GEFSNGP_500_meanwind_000.txt.gz
Wind_Speed
35 35 37 37 35 34 30 28 27 23 22 24 25 24 24 24 23 22 21 22 23 26 28 28 29 31 34 37 41 44 48 52 55 58 61 63 65 67 69 71 74 77 79 82
31 34 36 39 39 36 33 30 28 28 20 23 23 24 24 23 22 23 23 25 26 28 28 30 32 34 37 41 45 48 52 56 59 62 64 66 68 69 71 73 76 79 82 86
29 34 36 38 39 37 35 33 29 24 20 24 23 24 24 23 24 25 27 28 29 29 31 33 34 37 40 45 49 53 56 60 63 65 67 68 69 70 72 75 79 82 86 89
28 33 34 31 33 34 33 30 27 22 20 21 22 23 24 25 26 28 29 29 28 30 31 33 36 40 44 48 52 56 60 63 65 67 68 68 69 72 75 78 82 85 88 90
21 22 22 23 24 25 23 21 22 22 22 23 24 25 26 28 29 29 28 28 29 31 32 35 39 44 48 52 56 60 63 65 66 67 67 68 71 74 77 81 85 88 92 94
22 18 19 19 20 22 22 20 21 23 25 26 27 28 29 30 31 30 28 29 30 33 35 38 43 47 51 56 59 62 65 65 65 65 67 69 73 76 79 83 88 92 95 95
23 21 21 24 24 24 24 21 21 23 27 30 32 32 31 30 30 31 30 31 33 35 39 43 48 52 56 59 62 65 65 64 64 65 68 70 73 77 81 86 91 94 95 92
23 22 20 23 25 25 26 26 26 26 27 28 30 32 31 29 29 30 32 33 36 40 44 48 52 56 59 61 64 64 63 62 63 66 68 71 75 80 86 91 94 95 91 87
20 20 19 16 16 19 23 27 28 29 28 28 26 26 27 28 29 30 32 36 41 45 49 53 56 58 60 63 62 60 60 61 63 66 71 75 80 86 91 95 96 93 87 83
15 14 16 16 16 17 20 23 25 25 25 26 26 26 27 29 31 34 38 42 46 49 52 55 57 59 61 59 57 57 58 61 66 70 75 80 86 92 97 97 93 88 82 76
12 13 16 18 18 19 21 22 23 25 27 28 28 29 31 33 36 41 44 46 49 51 54 56 58 57 53 53 54 56 61 66 71 75 80 86 92 96 96 93 88 82 76 70
13 14 16 18 19 21 23 25 25 26 28 30 32 34 36 39 41 44 46 48 50 52 54 53 51 49 50 51 55 61 66 71 76 80 86 93 96 94 91 86 79 72 68 66
18 19 21 22 24 25 27 29 30 31 32 33 35 37 39 41 44 46 48 50 50 49 47 46 46 47 50 55 61 67 72 77 81 86 92 94 93 90 84 77 69 64 64 65
23 24 25 27 28 29 30 31 31 32 33 34 36 38 40 43 45 47 47 46 44 43 44 45 46 49 54 61 67 72 78 82 86 90 93 92 88 83 76 68 63 62 63 65
26 27 28 29 31 33 32 30 30 31 33 35 37 40 43 45 45 43 41 40 42 43 44 46 50 54 60 66 72 78 85 89 90 91 91 87 81 74 67 64 63 63 64 67
31 33 34 34 33 32 31 32 33 35 36 39 41 43 44 42 39 38 40 42 42 44 47 50 55 61 67 72 77 83 89 91 92 91 86 79 72 66 65 65 65 67 70 76
35 34 33 31 31 31 33 34 36 38 40 41 42 41 39 37 38 40 41 43 45 48 51 56 62 68 73 77 81 87 91 92 90 84 76 69 65 65 67 68 69 73 77 76
33 32 32 32 33 34 35 36 37 38 40 41 40 38 39 39 40 42 44 46 49 53 57 62 67 73 78 82 86 90 92 89 83 74 68 65 66 68 69 72 77 78 70 57
32 31 30 31 31 32 34 36 37 39 40 40 40 40 40 41 43 44 46 49 53 57 62 67 72 77 81 85 88 90 89 81 73 67 64 65 68 69 73 76 72 62 50 42
29 30 32 33 33 35 36 38 39 40 40 40 40 41 41 42 44 46 49 53 57 62 68 72 76 79 83 87 89 87 80 71 66 63 64 67 69 71 70 63 54 45 39 35
33 34 35 36 37 38 39 39 40 39 39 39 40 40 42 44 47 51 54 58 62 68 73 76 78 82 86 88 87 78 70 65 63 64 66 68 69 64 56 50 44 38 33 30
36 37 38 38 38 38 38 38 38 38 38 39 39 42 45 48 52 55 59 63 68 73 76 78 81 84 88 86 78 69 63 62 63 65 67 67 61 52 49 45 38 33 28 23
37 38 38 37 37 37 37 38 38 38 39 40 43 46 49 52 56 60 64 68 72 75 77 80 84 87 86 77 68 63 62 62 64 65 65 59 52 49 45 37 31 27 22 17
37 37 37 37 37 37 38 38 40 41 43 46 49 52 55 58 61 65 69 72 74 76 79 83 86 84 76 67 63 61 62 64 65 64 58 52 50 45 36 29 26 21 18 14
35 36 36 37 38 39 40 41 43 46 49 51 54 57 60 64 67 70 72 74 75 78 82 85 81 73 66 62 61 62 64 65 63 56 50 48 42 34 28 24 21 18 16 6
36 37 37 39 40 42 43 45 48 51 54 57 60 63 66 70 72 73 73 75 78 82 82 78 71 65 62 62 63 65 64 60 53 48 45 38 33 28 25 22 19 16 7 9
37 37 39 40 42 44 47 50 54 57 60 63 65 67 69 71 71 73 75 79 81 80 75 69 64 62 63 65 66 64 58 50 46 42 36 32 30 27 23 21 16 7 10 19

GEFSNGP_500_meanwind_006.txt.gz
Wind_Speed
23 24 24 23 25 28 28 27 25 23 23 24 24 22 21 22 22 23 25 26 28 28 28 28 29 30 31 32 35 36 36 37 39 42 46 50 55 59 63 66 66 64 63 63
19 19 20 21 23 23 23 23 23 22 21 24 26 25 24 24 25 26 27 28 28 28 28 28 30 32 33 35 36 37 37 39 41 46 50 55 59 63 66 66 64 61 62 66
17 17 17 19 20 21 22 22 23 23 23 25 25 26 26 25 26 26 26 27 27 27 28 30 32 34 35 36 37 37 38 41 45 50 54 59 63 66 66 64 61 62 66 71
17 17 18 20 21 23 26 27 26 27 28 27 25 26 28 27 26 25 23 24 26 28 30 32 34 35 36 37 38 39 41 45 50 54 59 63 66 67 63 61 62 66 71 77
20 20 20 19 21 23 25 27 29 30 31 30 27 28 28 26 24 23 24 25 28 30 32 33 35 37 37 38 39 41 45 50 54 58 62 66 66 63 61 62 66 71 77 83
21 20 20 19 19 20 22 25 28 30 32 30 29 29 27 27 26 26 27 28 30 32 33 35 36 36 36 38 41 45 50 54 58 62 65 65 62 61 62 66 71 77 82 88
20 19 18 17 18 19 20 22 25 27 28 27 27 28 27 29 29 28 29 31 33 35 36 36 36 36 37 40 45 50 54 58 61 64 64 61 60 62 66 71 76 81 86 92
18 16 15 17 18 17 17 20 24 26 26 27 27 28 28 28 29 29 29 30 32 33 33 33 34 36 40 44 49 53 57 60 62 61 59 59 61 66 71 77 81 86 91 96
17 15 16 18 18 17 17 19 21 23 25 27 28 28 29 29 29 29 29 30 30 30 31 34 37 41 45 49 53 56 58 59 57 56 58 60 65 70 76 81 86 91 96 100
19 18 20 20 19 17 16 17 18 20 22 25 27 28 28 29 28 28 28 29 30 32 34 38 42 45 49 52 55 56 55 53 54 55 58 63 69 75 80 85 90 95 100 102
19 19 21 21 20 19 17 15 15 15 16 17 19 21 23 24 27 28 30 32 33 36 38 41 44 47 50 53 53 51 50 51 53 57 62 67 73 79 84 89 95 100 102 101
19 19 19 18 17 16 15 14 14 14 16 17 19 20 22 25 27 29 30 32 35 37 40 43 46 50 51 50 48 48 50 52 56 61 66 72 78 82 88 93 98 101 100 93
16 16 15 13 12 12 13 13 14 16 18 20 22 24 26 28 29 30 32 33 36 39 42 46 49 48 46 46 47 49 52 56 61 66 72 77 82 87 90 94 97 98 91 81
16 15 14 13 12 13 14 16 18 20 22 25 27 29 30 31 32 33 34 36 39 42 45 45 44 44 45 47 49 52 56 60 65 71 77 82 87 91 95 96 96 89 78 72
17 16 15 15 16 18 20 21 23 25 27 30 32 33 33 33 33 34 36 39 41 42 42 42 43 44 46 48 52 56 60 65 70 76 82 87 91 94 95 95 91 80 70 69
20 20 20 21 22 24 26 27 28 30 33 34 34 33 32 32 34 36 38 39 39 40 41 42 43 45 47 51 55 60 64 70 75 81 85 89 92 94 94 90 80 70 68 67
23 25 26 27 29 30 31 32 33 35 35 33 32 32 33 34 35 36 38 39 40 40 41 42 44 47 51 55 59 64 70 75 80 84 88 91 93 92 89 79 69 67 66 62
28 29 31 32 33 33 33 34 35 34 34 33 33 34 33 33 35 37 39 39 39 40 41 44 47 51 55 59 65 70 75 79 83 86 89 91 91 87 77 68 65 64 59 53
31 31 32 33 33 34 34 34 34 34 33 32 31 31 32 35 37 38 39 39 40 41 44 48 52 56 60 65 70 75 79 82 85 88 90 90 85 76 67 64 63 58 52 44
29 29 30 31 31 31 31 31 30 30 30 30 31 33 36 37 39 39 39 40 42 45 48 52 56 60 66 70 75 79 82 84 87 89 89 84 74 66 63 61 55 49 43 33
27 28 28 28 27 28 28 28 29 30 31 33 35 36 37 38 39 40 41 42 45 49 52 56 61 66 70 74 78 81 84 86 89 88 82 72 65 62 59 53 46 40 32 24
23 24 24 25 26 27 28 30 31 33 34 36 36 38 38 39 40 41 43 46 49 52 56 61 66 70 74 77 80 83 86 89 87 80 70 64 61 58 50 44 38 31 24 19
25 26 27 28 28 30 31 32 34 35 35 36 37 38 38 39 41 43 46 49 52 57 62 67 70 74 77 79 82 85 88 87 79 69 63 61 57 49 42 37 30 23 17 14
28 29 29 30 31 32 33 34 34 35 36 36 37 38 39 41 43 46 50 54 59 64 67 70 73 76 78 81 85 89 86 77 68 64 61 56 48 42 36 29 22 16 12 7
29 30 31 31 31 31 31 32 33 34 35 36 38 39 42 44 48 52 56 61 65 68 70 73 75 77 81 86 89 84 74 67 64 62 56 47 42 36 29 23 16 10 5 3
25 25 25 26 27 28 30 32 33 35 37 38 40 43 47 50 54 58 61 65 67 69 72 74 76 80 85 87 81 71 66 65 61 55 48 42 36 29 23 17 11 5 3 13
22 23 25 26 28 30 33 35 37 38 40 43 46 50 53 56 60 63 65 67 69 70 73 75 80 85 85 77 69 65 64 60 55 49 42 35 28 22 17 11 4 5 14 22

GEFSNGP_500_meanwind_012.txt.gz
Wind_Speed
3 8 13 18 25 29 28 24 20 25 29 27 26 24 22 20 18 17 15 15 15 16 16 18 20 22 24 26 28 30 31 33 35 38 41 44 46 48 50 52 55 59 63 67
8 8 10 14 20 23 21 22 25 29 30 28 26 24 21 19 16 15 14 14 14 14 15 17 19 21 24 26 28 29 32 35 38 40 43 45 47 49 51 55 59 63 66 67
13 13 13 13 17 21 23 25 26 25 24 23 21 20 18 17 15 15 15 15 15 16 17 18 20 22 24 26 28 31 34 37 40 43 45 46 48 50 54 58 62 65 65 64
15 15 14 15 17 19 21 21 21 21 19 19 18 17 17 16 16 17 17 17 16 17 18 19 20 22 24 27 30 33 36 39 42 44 45 47 49 53 57 61 64 63 62 63
13 13 13 13 15 16 17 18 19 20 19 18 18 17 16 16 16 16 16 16 17 18 19 20 22 24 27 29 32 35 39 41 43 44 45 48 52 56 59 61 61 60 62 65
10 10 10 10 11 13 15 16 17 17 18 18 18 17 17 17 15 15 15 17 18 19 20 22 24 26 29 32 34 37 38 40 41 43 47 51 55 58 59 58 58 60 65 70
6 6 6 7 8 10 12 14 16 17 18 18 18 18 18 17 16 17 18 18 19 20 21 23 26 28 30 32 34 36 37 40 43 46 50 54 56 56 55 56 59 63 68 73
6 5 6 6 8 10 11 12 14 16 17 17 18 17 17 17 17 17 18 18 19 21 23 25 27 29 31 33 35 37 40 43 46 49 52 53 52 52 55 58 62 66 71 77
9 9 8 8 9 10 11 11 12 14 15 15 15 15 15 15 16 17 18 19 21 23 25 27 29 31 32 34 37 39 42 45 47 49 50 49 51 54 57 61 65 70 75 81
12 12 11 10 11 10 10 10 10 11 12 12 13 13 14 15 16 18 19 21 22 23 25 27 30 32 34 36 38 40 43 45 46 46 47 50 53 56 60 64 69 75 80 86
15 14 13 12 12 12 11 11 11 12 12 13 13 13 13 13 14 15 16 18 21 24 26 28 30 32 33 35 38 40 42 43 44 46 48 51 55 59 64 69 75 80 86 91
17 16 14 14 13 12 13 13 13 13 13 12 11 11 10 11 12 15 17 20 23 25 27 28 30 31 33 36 39 40 42 43 45 47 50 53 57 63 69 75 81 86 91 95
17 17 16 14 14 13 13 14 14 13 12 10 10 10 11 12 15 17 20 22 24 25 27 28 30 33 35 37 39 41 43 44 46 49 52 56 61 66 72 78 84 89 93 97
17 16 16 15 14 13 12 12 11 11 10 10 11 12 14 16 18 21 23 24 25 26 28 30 32 34 36 39 41 42 43 45 48 52 56 61 66 71 76 81 86 90 94 95
15 16 15 13 12 12 11 10 10 9 10 11 14 16 18 21 22 24 25 26 27 28 30 32 34 36 38 40 41 43 45 48 52 56 60 66 71 76 81 85 89 92 93 85
14 15 14 13 13 13 12 12 12 13 14 16 18 21 23 24 25 26 27 27 28 30 31 33 36 38 40 41 42 45 48 52 56 60 65 71 76 80 84 87 91 91 84 74
15 15 15 15 14 15 15 16 16 18 20 22 23 25 25 25 26 26 27 28 29 30 33 36 38 40 41 42 45 48 51 55 60 65 70 75 79 83 86 89 90 84 73 65
16 15 16 16 17 17 18 19 20 22 23 24 25 25 25 25 25 26 27 28 30 33 36 38 39 40 42 44 47 51 55 60 65 70 74 78 82 85 87 89 84 73 64 55
17 17 18 19 20 20 20 21 23 23 24 24 25 25 25 25 25 26 28 31 34 36 37 38 39 40 43 46 50 55 60 65 69 73 77 81 84 86 87 83 73 63 54 46
21 21 22 22 22 22 22 23 24 24 25 25 25 24 24 25 26 28 31 33 35 36 37 37 39 42 46 50 55 60 64 69 73 77 80 83 85 86 82 73 62 54 45 36
24 25 25 25 25 25 24 24 24 24 24 24 24 25 25 26 29 31 33 34 34 35 36 38 42 46 51 56 60 64 68 72 76 80 82 84 85 81 72 62 54 46 36 27
25 26 26 26 25 25 24 24 23 23 24 25 25 26 27 29 30 31 31 32 33 35 38 42 46 51 56 60 64 68 72 76 79 82 84 85 80 70 61 53 47 37 27 17
24 25 25 25 25 24 24 24 24 25 25 26 26 27 28 28 28 29 30 32 35 39 43 47 52 56 60 64 68 72 75 79 82 84 84 79 69 59 52 45 37 27 17 7
23 23 24 24 24 24 25 25 25 25 25 26 26 26 25 26 27 30 33 36 40 44 48 52 56 61 65 68 72 75 78 81 84 84 77 67 58 52 45 36 27 18 7 2
22 22 23 23 23 23 23 23 23 23 23 23 22 23 25 28 31 34 38 42 46 49 53 58 62 65 68 71 74 78 81 85 83 74 65 58 52 45 36 27 17 7 4 11
21 21 21 20 20 20 20 20 20 20 20 22 24 26 29 32 36 40 44 47 51 55 58 62 65 68 71 74 77 81 84 81 72 63 57 52 45 37 27 17 8 5 12 18
19 18 18 17 17 18 18 19 20 21 23 25 28 31 34 38 41 45 48 52 55 58 61 64 67 70 73 77 81 83 78 69 62 57 52 46 38 28 17 7 6 14 20 23

GEFSNGP_500_meanwind_018.txt.gz
Wind_Speed
22 21 19 18 16 16 17 15 11 5 9 18 21 25 30 34 35 36 37 37 35 34 34 33 33 33 33 33 33 32 32 32 32 32 33 34 36 37 40 43 46 50 52 54
18 17 15 13 9 5 3 1 5 9 18 23 24 27 30 32 32 33 33 32 30 29 29 29 29 30 29 29 29 29 29 29 29 30 31 33 36 39 42 46 49 51 52 54
17 18 17 15 10 7 10 14 17 20 23 24 28 29 29 29 29 29 28 27 26 25 25 26 26 25 25 25 25 24 25 25 27 29 31 35 38 41 45 48 50 52 54 58
17 17 18 14 12 13 17 21 23 25 26 28 28 27 26 25 24 24 23 22 21 21 21 20 20 20 20 20 20 21 23 24 27 30 34 37 40 43 46 49 51 54 57 60
14 15 15 15 16 18 19 21 22 24 24 24 24 23 21 20 19 19 18 17 16 15 15 14 15 16 17 18 19 21 23 26 30 33 36 39 42 45 48 50 53 56 59 61
10 11 13 14 15 17 17 19 20 20 20 20 20 18 17 16 15 15 14 13 12 12 12 13 14 15 17 18 20 23 26 29 32 35 38 41 44 46 48 51 54 57 59 60
6 8 9 9 10 10 12 14 14 15 15 15 15 14 13 12 12 11 11 11 11 11 12 13 15 16 18 20 23 25 28 31 34 37 39 41 44 46 50 53 55 57 57 59
3 4 5 5 6 6 6 7 8 9 10 10 11 10 10 10 10 10 10 11 11 12 13 15 16 18 20 22 25 27 30 32 35 37 39 42 45 48 51 53 54 55 57 60
5 3 3 3 3 3 4 5 5 7 8 9 10 10 11 11 11 11 11 11 12 13 14 15 17 19 22 24 26 29 31 33 35 37 40 43 46 49 51 52 53 55 58 62
9 7 5 3 2 3 4 4 5 6 7 9 10 10 10 10 10 11 11 11 12 13 15 16 18 20 23 25 27 29 31 33 36 39 42 45 47 49 50 51 54 57 61 65
14 11 9 6 5 4 4 4 5 5 6 7 7 8 9 9 9 10 10 11 11 12 14 16 19 21 24 26 28 30 32 35 38 41 43 45 46 47 49 52 57 61 65 69
16 14 12 9 7 6 6 5 6 6 6 7 7 8 8 8 8 8 9 9 11 13 16 19 21 24 26 28 30 32 34 37 39 42 43 44 45 48 51 56 61 65 70 75
16 15 13 11 9 8 8 8 8 8 8 8 8 7 7 7 7 8 9 11 14 17 20 22 25 26 28 30 32 34 36 39 41 42 42 43 46 50 55 60 66 71 75 80
16 15 14 13 11 11 10 10 10 10 10 9 8 8 8 8 9 11 13 16 19 21 24 26 27 29 30 32 34 36 38 39 40 40 42 45 49 54 58 63 68 73 78 83
16 15 15 14 14 13 12 11 11 10 9 9 9 9 9 10 12 15 18 20 23 25 27 28 29 30 32 33 35 36 37 38 39 41 44 49 54 59 64 68 73 77 81 86
16 15 15 14 13 12 12 11 10 10 10 10 10 11 13 15 17 19 22 24 26 27 28 29 30 31 32 34 35 35 36 37 40 44 49 54 58 64 68 72 76 81 85 85
15 14 14 14 13 13 12 12 11 11 11 12 13 15 17 19 22 23 25 26 27 27 28 29 30 31 33 33 34 34 36 40 44 49 54 59 64 68 72 76 80 84 84 78
13 12 12 13 14 14 14 14 13 14 15 16 18 19 21 23 24 25 26 27 27 27 28 29 30 32 32 32 33 36 40 45 49 54 59 64 68 72 75 80 84 83 76 65
14 14 14 14 15 15 16 16 16 17 18 20 21 22 23 25 25 26 27 27 26 27 28 30 30 30 30 32 36 41 45 50 55 59 64 68 71 75 80 83 83 76 64 54
17 16 16 16 16 16 17 18 18 19 20 21 22 24 25 25 26 26 26 26 27 28 29 29 29 30 33 37 41 46 50 55 60 64 68 71 75 80 83 82 75 63 53 45
19 18 18 18 18 18 19 20 20 21 22 23 24 24 25 25 26 26 26 27 28 28 28 28 30 33 37 41 46 51 55 60 64 67 71 75 80 83 82 74 63 53 44 34
19 20 21 21 22 22 22 23 23 24 24 24 24 24 25 25 26 27 27 27 26 26 28 30 33 37 42 46 51 56 60 63 67 70 75 79 83 81 73 63 53 44 34 23
21 22 23 23 24 24 24 24 24 24 24 24 24 24 25 25 26 26 26 25 25 27 30 33 37 42 47 52 56 60 63 66 70 74 79 83 81 73 62 53 44 34 23 12
22 23 23 23 24 24 24 24 24 24 24 24 24 24 25 26 25 25 24 25 27 30 34 38 42 47 52 56 60 63 65 69 74 79 82 80 73 63 53 44 34 23 11 3
23 24 24 24 24 23 23 23 23 23 23 23 24 24 24 24 24 24 25 28 31 34 38 43 47 52 56 59 62 65 68 73 79 82 80 72 63 54 45 34 22 10 3 10
25 25 24 24 23 23 22 23 23 23 23 24 24 23 23 23 24 26 28 31 35 39 43 47 51 55 59 61 64 67 72 78 82 80 72 62 54 45 34 21 7 4 12 16
26 25 24 23 23 23 23 23 23 23 23 23 23 23 23 24 26 29 32 36 39 43 47 51 54 58 60 63 67 71 77 81 79 72 62 53 44 32 18 5 6 14 18 18